Location: Hart
(40.7333°S, 175.4333°E)
Time: 13:46:32
(UTC+00:00)

Daily predictions for brighter satellites

Satellite Brightness Start Highest point End
(mag) Time Altitude Azimuth Time Altitude Azimuth Time Altitude Azimuth
CZ-4C R/B 4.4 15:30:09 30° ESE 15:30:09 30° ESE 15:33:45 10° SE
Centaur D-1A AC-31 4.2 16:12:28 15° NNE 16:12:28 15° NNE 16:15:12 10° NE
CENTAUR R/B 4.2 16:26:12 10° N 16:34:04 39° ENE 16:40:50 10° SE
BREEZE-M DEB (TANK) 3.7 16:39:46 70° ESE 16:39:46 70° ESE 16:52:31 10° ENE
CZ-3 Stage 3 3.8 16:57:41 15° NE 16:57:41 15° NE 16:59:51 10° ENE
Cosmos 2219 Rocket 3.5 17:07:22 28° N 17:07:22 28° N 17:10:00 10° N
Cosmos 2237 Rocket 3.9 17:04:15 14° S 17:08:16 30° ESE 17:13:16 10° ENE
CZ-4C R/B 3.3 17:15:17 45° SW 17:15:17 45° SW 17:22:03 10° SSE
SMAP 4.2 17:12:36 10° NE 17:17:02 42° ESE 17:21:02 13° S
SL-19 R/B 4.1 17:13:17 10° N 17:19:01 69° WNW 17:19:09 69° W
COSMOS 2455 3.3 17:20:35 44° SSW 17:20:35 44° SSW 17:25:19 10° SSE
PSLV R/B 3.9 17:16:20 10° NNE 17:20:26 61° ESE 17:20:58 55° SE
Cosmos 2297 Rocket 2.7 17:17:20 10° N 17:22:53 59° ENE 17:28:29 10° SSE
Meteor 1-22 Rocket 4.4 17:18:49 13° S 17:23:35 64° E 17:28:53 10° NNE
COSMOS 2428 2.6 17:23:41 52° SSW 17:25:10 84° WNW 17:30:52 10° NNE
Cosmos 1300 4.1 17:23:53 24° SSE 17:25:22 34° ESE 17:28:39 10° NE
Cosmos 371 Rocket 3.9 17:23:00 10° N 17:27:42 55° ENE 17:32:26 10° SSE
CZ-3 R/B 3.6 17:21:56 26° WNW 17:31:33 43° NNW 17:38:51 10° NE
BlueWalker 3 2.5 17:36:38 47° SSE 17:36:54 48° SE 17:40:38 10° ENE
Cosmos 2208 Rocket 4.3 17:35:09 18° SSW 17:39:16 70° ESE 17:44:38 10° NNE
Meteor 2-10 Rocket 3.9 17:37:17 10° S 17:43:12 79° E 17:49:02 10° NNE
ISS -0.7 17:47:03 10° N 17:49:14 16° NE 17:51:25 10° E
Cosmos 1733 Rocket 4.0 17:45:51 10° S 17:50:07 48° E 17:54:21 10° NNE
OAO 2 Rocket 4.5 17:47:42 21° NW 17:50:26 36° NNE 17:55:03 10° ENE
Cosmos 1707 Rocket 4.0 17:46:21 10° N 17:50:43 63° E 17:55:11 10° SSE
Meteor 1-12 Rocket 4.3 17:46:44 10° S 17:52:39 85° E 17:58:36 10° N
SL-14 R/B 3.1 17:49:24 10° NNW 17:53:19 77° W 17:57:15 10° S
CORIOLIS 4.1 17:50:20 10° N 17:55:47 81° WNW 18:01:20 10° SSW
IRIDIUM 104 4.3 17:53:21 10° S 17:58:41 85° W 18:03:56 10° N
Cosmos 2322 4.3 17:57:45 32° W 17:58:52 35° WNW 18:04:00 10° NNW
Cosmos 1346 Rocket 2.7 17:59:44 35° SW 18:01:06 57° W 18:04:55 10° N
Meteor 1-21 4.3 17:56:11 10° N 18:01:48 81° E 18:07:33 10° SSE
Cosmos 2228 Rocket 3.0 17:57:29 10° N 18:01:57 87° W 18:06:32 10° S
USA 306 3.9 18:00:15 10° NNW 18:02:55 32° NE 18:06:03 10° ESE
COSMO-SKYMED 1 3.8 17:59:51 10° SSE 18:04:06 45° E 18:08:17 10° N
Cosmos 2266 Rocket 3.9 17:59:18 10° N 18:05:22 84° W 18:11:37 10° S
Cosmos 1570 Rocket 4.2 18:04:00 23° SW 18:07:03 49° WNW 18:12:07 10° N
IRIDIUM 114 4.3 18:02:32 10° S 18:07:49 70° W 18:13:01 10° N
Cosmos 1315 Rocket 2.8 18:04:27 10° N 18:08:19 79° E 18:12:18 10° SSE
Cosmos 1503 Rocket 4.1 18:04:10 10° NNW 18:09:26 81° ENE 18:14:51 10° SSE
Meteor 1-23 Rocket 4.2 18:04:13 10° NNW 18:09:42 55° WSW 18:15:16 10° S
Meteor 1-15 Rocket 4.4 18:05:39 10° SSW 18:11:12 50° W 18:16:37 10° NNW
NOSS 0 Rocket 4.0 18:07:22 17° SW 18:12:00 54° WNW 18:17:58 10° N
AQUARIUS 4.1 18:08:01 10° N 18:12:29 70° W 18:17:00 10° SSW
IGS 5A 4.4 18:08:39 10° NNE 18:12:35 48° ESE 18:16:34 10° S
Helios 1B rocket 3.2 18:12:12 10° NNE 18:16:01 49° ESE 18:19:51 10° S
USA 276 3.7 18:17:31 15° S 18:17:31 15° S 18:18:25 10° SSE
IRIDIUM 103 4.4 18:11:44 10° S 18:16:56 57° W 18:22:03 10° NNW
ADEOS Rocket 3.0 18:15:23 10° NNE 18:21:01 82° ESE 18:27:15 10° SSW
CZ-4B R/B 4.0 18:19:18 10° NNE 18:23:33 87° ESE 18:27:44 10° SSW
CENTAUR R/B 3.1 18:16:31 10° NW 18:24:42 53° SW 18:31:30 10° SSE
Cosmos 1818 3.7 18:20:52 10° SSW 18:26:14 74° ESE 18:31:36 10° NE
Cosmos 1953 3.3 18:24:12 10° S 18:28:03 48° E 18:31:50 10° NNE
Cosmos 1758 3.8 18:25:49 14° SSW 18:28:41 34° W 18:32:13 10° NNW
Cosmos 1486 Rocket 4.4 18:26:06 10° NW 18:31:05 41° WSW 18:36:07 10° S
Cosmos 332 Rocket 3.9 18:27:26 10° NNW 18:32:14 83° ENE 18:37:07 10° SSE
Cosmos 1461 4.3 18:32:35 18° WSW 18:33:45 20° SW 18:37:01 10° S
Intercosmos 25 Rocket 4.0 18:30:20 10° SSW 18:34:30 74° W 18:41:08 10° N
Cosmos 304 Rocket 4.2 18:30:55 10° NW 18:35:24 38° WSW 18:39:55 10° S
CZ-2C R/B 2.8 18:38:45 10° N 18:42:18 48° W 18:45:51 10° SSW
Cosmos 883 Rocket 4.5 18:36:32 10° SSW 18:42:42 66° W 18:48:53 10° N
Cosmos 2263 Rocket 3.0 18:42:42 10° N 18:48:17 59° ENE 18:53:56 10° SSE
S3M 4.4 18:42:59 10° SSW 18:48:59 44° W 18:54:59 10° NNW
Cosmos 2227 Rocket 2.3 18:45:24 10° NW 18:50:55 53° WSW 18:56:31 10° SSE
SKYMED 2 3.7 18:47:46 10° S 18:52:05 53° WSW 18:56:20 10° NNW
Cosmos 2237 Rocket 2.7 18:47:04 10° SW 18:52:24 40° WNW 18:57:41 10° N
NOSS 3-2 (A) 4.3 18:45:42 10° NW 18:54:29 54° SW 19:02:11 10° SSE
SMAP 4.5 18:51:11 10° NW 18:54:32 19° W 18:57:55 10° SW
FALCON 9 R/B 4.4 18:38:15 10° WNW 18:58:25 37° NNW 19:04:07 10° NE
Cosmos 1655 Rocket 4.3 18:53:09 10° NNW 18:59:12 48° WSW 19:05:23 10° S
Meteor 1-31 Rocket 3.5 18:55:59 10° NNW 18:59:20 31° W 19:02:43 10° SSW
Cosmos 1300 4.4 18:58:01 10° WSW 18:59:38 13° W 19:01:15 10° WNW
Okean 3 4.3 18:56:45 10° NW 19:00:19 28° WSW 19:03:58 10° SSW
Resurs 01 Rocket 4.3 19:01:43 10° ENE 19:04:40 18° ESE 19:07:38 10° SSE
CZ-4C R/B 4.4 19:01:17 10° WSW 19:05:23 15° SSW 19:09:06 10° S
USA 307 0.9 19:06:41 11° SE 19:06:41 11° SE 19:06:42 10° SE
Cosmos 2315 Rocket 4.3 19:00:36 10° SSW 19:06:35 46° W 19:12:33 10° NNW
Aureole 3 4.0 19:04:34 10° NW 19:07:14 22° WSW 19:09:44 10° SSW
Cosmos 2297 Rocket 3.3 19:02:58 10° WNW 19:07:20 22° SW 19:11:43 10° S
Cosmos 990 Rocket 4.1 19:02:23 10° NNW 19:07:39 88° ENE 19:12:57 10° SSE
SL-16 R/B 2.4 19:02:23 10° SSW 19:08:08 80° ESE 19:13:50 10° NNE
CZ-4 R/B 3.3 19:06:17 10° NE 19:09:34 28° ESE 19:12:56 10° S
Cosmos 2082 4.0 19:04:25 10° NNW 19:10:09 81° ENE 19:15:58 10° SSE
